Temperature
14 14 14 14 14 15 15 15 15 16 16 16 15 15 15 15 15 15 14 14 14 14 14 14 14 14 14 14 14 14 14 13 13 14 14 14 14 14 14 15 15 15 15
14 14 14 14 15 15 15 15 15 16 16 15 15 15 15 15 14 14 14 14 14 14 14 14 14 13 13 13 13 13 13 13 13 13 14 14 14 14 14 14 15 15 15
14 14 14 14 15 15 15 15 16 16 16 15 15 15 15 14 14 14 14 14 14 14 14 13 13 13 13 13 13 13 13 13 13 13 13 13 14 14 14 14 14 15 15
14 14 14 14 15 15 15 16 16 16 16 15 15 15 15 14 14 14 14 14 14 14 14 14 13 13 13 13 13 13 13 13 13 13 13 13 13 13 14 14 14 14 15
14 14 14 15 15 15 15 16 16 16 16 16 15 15 15 14 14 14 14 14 14 14 14 14 14 14 14 13 13 13 13 13 13 13 13 13 13 13 13 13 13 14 14
14 14 14 14 15 15 15 15 15 15 15 15 15 15 14 14 15 15 15 14 14 14 14 14 14 14 14 14 14 13 13 13 13 13 13 13 13 13 13 13 13 13 13
13 13 13 13 13 13 13 14 14 14 14 14 14 14 14 14 14 15 15 14 14 14 14 14 14 13 14 13 13 13 13 13 13 13 13 12 12 12 12 12 12 12 12
12 12 12 12 12 12 12 13 13 12 13 13 13 13 13 13 14 14 14 14 14 14 14 14 14 14 13 13 13 13 13 13 13 13 12 12 12 12 12 12 12 12 12
11 11 11 11 11 11 12 12 12 12 12 12 12 12 12 12 13 13 13 13 13 13 13 13 13 13 13 14 13 13 13 13 13 13 13 13 13 12 12 12 12 12 12
11 11 11 11 11 11 11 11 11 11 11 11 11 11 12 12 12 12 12 12 13 13 13 13 14 13 13 14 13 13 13 13 13 13 13 13 13 12 12 12 12 12 11
11 11 11 11 11 11 11 11 11 11 11 11 11 11 11 11 11 12 12 12 12 12 12 12 13 13 13 13 13 13 13 13 13 13 13 13 13 12 12 12 12 12 11
11 11 11 11 11 11 11 11 11 11 11 10 10 10 11 11 11 11 11 11 11 11 11 11 12 12 12 13 13 13 13 13 13 13 13 13 12 12 12 12 12 12 11
12 11 11 11 11 11 11 11 11 10 10 10 10 10 10 10 10 10 11 11 11 11 11 11 11 12 12 12 12 12 12 12 12 13 12 12 12 12 12 12 11 11 11
12 12 11 11 11 11 11 10 10 10 10 10 10 10 10 10 10 10 10 10 10 10 10 11 11 11 11 11 12 12 12 12 12 12 12 12 12 12 11 11 11 11 11
12 12 11 11 11 10 10 10 10 10 10 10 10 10 10 10 10 10 10 10 10 10 10 10 10 10 10 11 11 11 11 11 11 12 11 11 11 11 11 11 11 11 11
13 12 12 11 11 10 10 10 10 10 10 9 9 10 10 10 10 10 10 10 10 9 10 10 10 10 10 10 10 11 11 11 11 11 11 11 11 11 10 10 10 10 10
13 12 12 11 11 11 10 10 10 9 9 9 9 10 10 10 10 10 9 9 9 9 9 9 9 10 10 10 10 10 10 10 10 11 10 10 10 10 10 10 10 10 9
13 12 12 11 11 11 10 10 10 9 9 9 9 9 9 9 9 9 9 10 9 9 9 9 9 9 9 9 10 10 10 10 10 10 10 10 9 9 9 9 9 9 9
13 12 12 11 11 11 10 10 10 9 9 9 9 9 9 9 9 9 9 9 9 8 8 8 8 9 9 9 9 9 9 9 9 9 9 9 9 9 8 8 8 8 8
14 13 12 11 11 11 11 10 10 10 9 9 9 9 9 8 8 8 8 8 8 8 8 8 8 8 8 8 8 8 8 8 8 8 8 8 8 8 8 8 8 8 8
13 13 12 11 11 11 11 10 10 10 9 9 9 9 9 8 8 8 8 8 7 7 7 8 8 8 8 8 8 8 8 8 8 8 7 7 7 7 7 7 7 7 7
13 12 12 11 11 11 11 10 10 10 9 9 8 8 8 8 8 7 7 7 7 7 7 7 8 8 8 8 8 8 7 7 7 7 7 6 6 7 7 7 7 7 6
13 13 12 11 11 11 11 10 10 10 9 9 9 8 8 8 8 8 8 8 8 8 8 7 8 8 8 8 8 8 7 7 7 7 6 6 6 6 6 6 6 6 6
13 13 12 11 11 11 11 10 10 10 9 9 9 8 8 8 8 8 8 8 8 8 8 8 8 8 8 7 7 8 8 8 7 7 6 6 6 6 5 5 5 5 5
13 13 12 12 11 11 11 10 10 10 9 9 9 8 8 8 8 8 8 8 8 8 8 8 8 8 7 7 8 8 8 8 7 7 6 6 5 5 5 5 5 5 5
14 13 13 12 11 11 11 11 10 10 10 9 9 8 8 8 8 8 8 9 9 8 8 8 8 8 8 8 8 8 8 8 7 7 6 6 5 5 4 5 5 4 4
Wind_Speed
6 4 3 0 3 5 6 7 7 7 7 8 8 7 7 7 7 6 5 5 6 6 6 7 8 9 7 8 8 8 8 8 9 7 5 5 6 6 4 7 9 11 13
3 2 1 4 6 7 8 7 6 6 6 8 8 8 7 7 7 6 6 6 6 6 6 6 7 7 8 8 7 8 8 9 9 9 7 6 8 7 6 7 7 9 10
2 2 3 4 4 4 4 3 3 4 5 6 7 8 8 8 8 7 7 7 7 6 6 6 6 7 8 7 8 8 7 8 8 8 8 5 5 5 5 6 7 7 9
1 2 3 3 3 3 2 1 2 3 4 5 7 8 9 9 9 9 9 8 8 7 6 6 6 6 7 7 6 7 7 7 8 8 8 6 5 3 4 6 6 6 7
8 7 6 6 5 5 4 3 2 1 3 4 6 7 7 8 9 9 9 9 9 8 7 7 6 4 4 4 4 4 5 5 5 5 6 5 5 4 4 4 5 5 6
11 10 9 8 8 8 7 6 5 4 3 2 2 4 4 4 3 5 9 10 10 10 8 7 5 6 7 7 5 4 4 4 4 4 4 4 5 5 4 4 4 4 4
12 11 10 10 10 9 9 9 8 7 7 6 5 3 3 5 7 6 9 10 10 10 9 7 5 5 5 6 7 8 7 5 4 4 3 3 3 2 3 4 4 4 4
12 12 11 10 10 10 10 10 9 8 8 7 8 7 6 9 11 8 6 10 9 9 8 8 7 7 7 5 5 5 5 5 5 6 4 2 1 1 1 2 2 3 3
11 11 10 10 10 9 9 9 8 7 7 7 7 8 7 8 13 11 9 4 4 5 6 6 6 7 6 2 6 5 4 3 4 5 4 3 2 1 2 2 2 2 3
9 9 9 9 9 9 8 8 7 6 6 6 7 7 8 8 12 13 11 2 1 1 3 4 1 2 2 3 7 6 5 2 2 4 5 6 6 6 7 4 3 2 2
6 6 7 7 7 7 7 7 7 6 6 6 6 7 8 8 10 13 12 6 4 2 2 2 2 2 2 4 7 7 2 3 2 2 2 2 3 3 4 4 3 2 2
3 4 5 6 6 6 6 6 6 6 6 7 7 7 6 7 8 9 10 8 8 4 2 2 1 1 3 5 6 3 0 3 3 2 2 2 2 2 1 1 1 1 1
2 3 4 4 5 5 6 6 5 6 6 6 7 7 7 6 6 6 6 5 5 3 2 3 4 4 5 6 4 3 4 4 3 3 3 2 2 2 1 1 0 0 1
2 3 3 5 6 6 5 5 5 6 6 6 7 7 7 7 8 9 8 5 3 2 1 1 2 1 1 1 2 4 3 3 3 3 3 3 3 2 1 1 1 1 1
1 2 3 4 5 5 5 5 5 6 6 6 6 6 7 8 10 12 9 8 6 4 3 1 1 1 2 2 2 3 3 3 3 3 4 4 3 2 2 1 1 2 2
1 2 3 3 4 4 4 5 4 3 5 7 8 8 6 8 10 10 11 12 11 7 3 3 3 3 3 2 3 3 3 3 3 3 3 3 2 2 1 1 2 3 3
1 1 2 3 4 4 5 5 4 4 4 6 9 11 11 11 12 12 11 12 14 11 8 7 7 6 6 5 5 5 5 5 4 4 4 4 3 3 2 3 3 3 4
1 3 2 2 3 4 5 5 5 4 4 4 7 9 9 11 12 13 11 9 11 11 9 9 8 8 7 7 6 6 6 5 5 5 5 5 4 4 3 4 4 5 5
2 3 3 3 2 3 4 4 4 5 5 4 4 5 6 5 7 11 10 10 9 9 9 9 8 8 8 7 7 7 7 6 6 5 5 5 4 4 4 4 4 4 4
3 3 2 2 2 2 3 3 4 5 4 5 5 6 5 6 7 8 8 8 8 8 8 7 7 7 7 7 7 6 6 6 6 5 4 4 4 4 4 4 4 5 4
3 5 5 2 1 1 2 2 3 4 4 4 5 6 7 5 6 7 7 7 7 7 7 6 6 7 6 6 6 6 6 5 4 4 4 4 4 4 4 4 4 5 5
2 3 3 2 2 1 1 2 2 3 3 3 3 4 2 4 5 5 5 5 6 6 6 5 5 5 6 6 6 5 5 5 5 4 4 4 4 4 4 4 4 5 5
2 3 3 3 3 3 2 2 2 2 2 2 2 2 3 4 4 4 4 5 5 5 5 5 5 5 5 6 6 5 5 5 4 4 4 4 4 4 4 4 5 6 6
3 4 4 4 4 3 3 3 3 3 2 1 1 1 2 3 3 4 4 3 4 5 5 6 6 6 7 7 6 7 8 8 5 3 4 4 4 4 4 5 5 6 6
4 4 5 5 5 4 4 4 4 3 3 3 2 1 1 2 3 3 3 3 4 4 5 5 5 5 7 9 9 9 10 10 9 6 4 4 5 5 5 6 6 6 6
5 5 5 5 5 5 5 4 4 4 3 3 3 2 1 1 2 2 2 3 3 4 4 4 5 5 6 7 9 9 9 9 9 9 5 6 6 6 6 6 7 7 7
Wind_Direction
69 76 77 39 254 248 245 243 237 222 204 202 204 206 197 196 201 207 228 222 234 239 239 245 246 243 238 231 227 225 224 226 237 242 235 244 247 250 227 238 240 224 217
37 41 287 246 241 236 232 231 224 214 209 213 205 209 205 207 211 213 220 223 232 242 245 247 251 246 242 236 230 229 227 225 234 245 240 236 245 254 259 252 244 240 243
327 314 276 267 262 249 232 228 229 220 215 218 218 219 217 219 222 223 225 228 230 236 243 249 251 242 241 234 230 232 231 231 232 242 244 230 236 238 252 256 251 247 246
14 18 355 356 354 346 350 321 273 250 236 234 233 233 232 231 232 233 234 232 233 234 236 242 250 246 247 243 237 236 232 231 230 236 243 239 233 222 235 243 244 236 242
55 51 38 32 31 28 25 14 355 313 269 255 250 248 245 245 243 242 239 237 236 233 233 233 235 255 298 279 272 257 236 230 225 229 237 237 226 206 219 227 242 245 245
55 51 44 43 43 41 38 39 42 38 25 1 293 269 262 266 340 299 264 244 239 235 232 229 213 213 217 226 255 282 289 252 229 224 224 229 233 228 225 223 238 247 253
55 52 49 50 50 48 49 50 49 50 50 47 37 24 21 22 358 301 259 256 242 237 234 225 213 214 212 216 201 212 225 227 246 259 243 237 237 226 225 223 229 240 255
53 51 49 50 50 50 49 46 44 47 49 47 43 41 41 30 12 351 291 249 245 239 238 239 226 219 211 227 220 223 224 212 215 236 256 276 307 320 252 239 225 245 265
49 48 47 47 47 46 45 41 37 39 44 46 44 40 36 28 15 2 332 253 242 236 231 237 245 241 130 229 251 244 236 223 199 241 305 328 7 298 275 237 215 235 252
48 48 47 46 43 41 40 36 36 39 40 46 47 39 33 26 19 12 351 345 291 215 216 220 213 280 118 213 244 249 254 245 213 189 209 220 228 214 212 234 238 242 244
44 44 42 40 37 32 30 29 30 36 41 44 47 40 34 25 23 21 9 4 349 302 230 213 167 140 250 237 258 262 289 312 264 224 190 186 197 200 200 213 218 232 244
42 41 38 31 25 20 22 26 30 31 37 39 37 36 29 26 21 17 15 11 346 339 337 333 27 359 283 258 252 272 6 260 251 217 191 186 191 181 173 181 201 222 249
35 39 29 28 30 25 24 29 35 37 36 35 32 26 19 17 18 10 1 356 340 330 335 342 323 300 271 237 218 234 220 218 211 205 189 157 133 117 109 97 71 30 92
13 27 25 24 32 42 43 38 40 39 36 32 25 16 9 12 13 3 353 349 318 284 279 215 214 237 256 39 161 187 199 188 192 184 154 133 133 135 110 55 16 346 316
355 33 29 36 34 41 57 50 45 54 32 14 7 1 4 4 360 349 353 0 355 353 333 323 112 132 134 131 133 134 142 154 155 141 135 135 135 127 108 62 351 328 321
343 39 39 43 45 44 55 89 90 55 41 27 19 6 27 18 359 10 18 19 16 9 23 61 58 63 74 93 112 111 104 104 107 109 108 106 102 90 72 44 345 333 333
304 92 77 51 52 52 47 47 76 120 132 74 44 33 30 22 24 24 25 34 33 30 46 47 44 43 48 54 60 69 67 62 66 74 75 70 62 51 35 23 5 349 342
155 116 110 87 62 57 53 53 54 60 73 75 73 50 28 28 31 26 23 42 46 43 44 43 41 41 42 46 49 54 60 59 58 61 60 55 46 38 28 15 7 1 347
152 139 125 101 91 77 70 66 68 71 67 51 47 62 40 37 53 39 35 51 52 46 43 43 41 40 40 42 45 49 52 51 50 50 47 40 34 29 23 11 4 6 341
135 102 126 137 130 111 92 80 77 79 72 60 46 31 33 42 48 45 44 47 51 50 45 43 41 40 40 40 40 42 47 46 41 38 31 23 18 15 9 0 355 354 359
146 148 172 182 146 120 101 87 89 95 89 74 61 40 7 45 53 50 47 44 42 40 39 39 37 32 33 34 34 36 39 38 30 22 13 3 356 359 0 4 5 6 3
169 168 176 165 158 165 137 122 106 109 110 100 90 86 43 50 55 54 53 46 41 38 35 39 45 34 30 30 29 29 28 26 17 6 355 356 356 360 8 14 11 11 7
213 192 190 181 175 162 194 167 154 138 127 119 98 78 72 67 68 59 48 41 39 40 39 48 54 47 44 44 40 31 22 15 4 353 347 357 8 19 23 24 20 13 12
239 218 212 201 196 201 198 185 180 174 169 153 127 76 73 77 73 70 64 52 46 52 52 54 54 53 50 46 41 38 27 10 359 3 11 23 35 38 37 32 29 26 22
249 227 217 213 205 206 204 197 198 194 191 193 202 203 111 85 79 77 73 65 60 65 67 66 63 57 52 54 50 43 30 25 23 15 56 59 60 54 51 48 47 45 40
246 230 219 211 210 210 211 208 204 201 207 211 209 211 201 117 95 96 92 83 80 80 78 74 66 63 59 57 52 42 36 36 33 17 41 70 67 61 65 68 65 57 57
Height
1504 1505 1506 1508 1510 1513 1514 1516 1517 1519 1520 1522 1522 1523 1523 1523 1523 1523 1523 1522 1522 1521 1520 1520 1519 1518 1518 1519 1519 1521 1522 1524 1525 1527 1529 1531 1532 1534 1535 1535 1536 1536 1537
1507 1508 1509 1510 1512 1513 1514 1515 1517 1518 1519 1520 1521 1521 1521 1521 1522 1522 1521 1520 1520 1519 1519 1518 1517 1516 1516 1515 1516 1517 1518 1519 1521 1522 1524 1525 1527 1529 1530 1531 1532 1533 1534
1510 1510 1511 1512 1513 1514 1514 1515 1515 1516 1517 1518 1518 1519 1519 1520 1520 1520 1520 1519 1519 1518 1517 1517 1515 1514 1513 1513 1512 1513 1514 1515 1516 1518 1519 1521 1522 1524 1525 1526 1527 1528 1529
1511 1511 1512 1512 1513 1513 1514 1514 1514 1514 1515 1516 1516 1517 1517 1517 1517 1518 1518 1518 1518 1517 1516 1515 1514 1513 1512 1511 1511 1511 1511 1512 1512 1513 1515 1516 1518 1518 1520 1521 1522 1523 1524
1511 1511 1511 1512 1512 1512 1512 1512 1512 1512 1513 1513 1513 1513 1514 1514 1514 1515 1515 1515 1516 1516 1515 1514 1513 1511 1511 1510 1509 1509 1509 1509 1510 1510 1511 1512 1513 1514 1515 1516 1517 1518 1519
1512 1511 1511 1511 1511 1511 1510 1510 1510 1510 1510 1510 1510 1510 1510 1510 1510 1510 1511 1512 1513 1513 1513 1513 1512 1510 1509 1509 1508 1507 1507 1508 1508 1508 1509 1509 1509 1510 1511 1511 1512 1513 1515
1514 1513 1512 1512 1511 1510 1510 1509 1509 1508 1508 1507 1507 1507 1506 1506 1505 1506 1506 1507 1508 1509 1510 1510 1510 1509 1508 1509 1508 1507 1507 1506 1507 1507 1507 1507 1507 1507 1508 1508 1509 1509 1511
1518 1516 1515 1514 1513 1512 1511 1510 1509 1508 1508 1507 1506 1505 1504 1503 1502 1502 1502 1503 1504 1505 1506 1507 1507 1508 1507 1508 1508 1508 1508 1507 1506 1506 1506 1506 1506 1506 1506 1506 1506 1507 1507
1522 1521 1519 1518 1516 1515 1514 1512 1511 1510 1508 1507 1505 1504 1503 1501 1500 1499 1499 1499 1500 1500 1501 1502 1503 1505 1504 1505 1506 1507 1507 1506 1505 1505 1505 1504 1504 1504 1504 1504 1504 1504 1504
1526 1525 1523 1521 1520 1518 1516 1514 1512 1511 1509 1507 1505 1504 1502 1500 1499 1498 1497 1497 1496 1496 1497 1498 1498 1500 1501 1502 1504 1505 1506 1506 1505 1504 1504 1503 1503 1502 1502 1502 1502 1502 1502
1529 1527 1525 1524 1522 1520 1518 1515 1513 1511 1509 1507 1506 1504 1502 1500 1498 1497 1496 1495 1494 1494 1494 1494 1495 1496 1497 1499 1500 1502 1503 1503 1503 1503 1503 1502 1502 1502 1502 1501 1501 1501 1500
1531 1529 1527 1525 1523 1521 1519 1516 1514 1512 1510 1508 1507 1505 1503 1501 1499 1497 1495 1494 1493 1492 1492 1492 1492 1492 1494 1495 1497 1498 1499 1500 1501 1501 1501 1501 1501 1501 1501 1500 1500 1499 1499
1532 1531 1529 1527 1524 1522 1520 1517 1515 1513 1511 1510 1508 1506 1504 1502 1500 1497 1495 1493 1491 1490 1489 1489 1489 1490 1491 1492 1493 1494 1496 1497 1498 1499 1499 1500 1500 1500 1500 1499 1499 1499 1498
1534 1532 1530 1528 1526 1523 1520 1518 1516 1514 1513 1511 1509 1508 1506 1504 1501 1498 1495 1492 1490 1488 1488 1487 1487 1487 1488 1489 1490 1492 1493 1495 1496 1497 1498 1498 1498 1499 1499 1499 1498 1498 1498
1534 1532 1531 1529 1527 1524 1521 1519 1517 1516 1514 1513 1511 1509 1507 1505 1502 1499 1495 1492 1489 1487 1487 1487 1486 1486 1487 1487 1488 1490 1492 1493 1495 1496 1497 1497 1498 1498 1498 1498 1498 1497 1497
1535 1533 1531 1530 1528 1526 1524 1521 1519 1518 1516 1515 1513 1511 1509 1507 1504 1501 1497 1494 1491 1489 1489 1488 1488 1488 1488 1489 1489 1491 1492 1493 1495 1496 1497 1497 1498 1498 1498 1498 1497 1497 1497
1534 1533 1531 1530 1529 1527 1525 1523 1522 1520 1518 1517 1515 1513 1511 1509 1506 1504 1500 1497 1494 1493 1492 1491 1490 1490 1490 1491 1492 1492 1494 1495 1496 1497 1497 1498 1498 1499 1498 1498 1497 1497 1496
1533 1532 1531 1530 1529 1528 1526 1525 1523 1522 1521 1520 1517 1515 1513 1511 1509 1506 1504 1501 1499 1497 1496 1495 1494 1494 1494 1494 1495 1495 1496 1497 1497 1498 1498 1499 1499 1499 1498 1498 1497 1496 1495
1533 1532 1531 1531 1530 1529 1528 1526 1525 1524 1522 1521 1520 1517 1515 1513 1511 1509 1507 1505 1503 1502 1501 1500 1499 1498 1498 1498 1498 1498 1499 1499 1499 1499 1499 1499 1499 1499 1498 1497 1496 1495 1494
1532 1532 1531 1531 1531 1530 1529 1528 1527 1526 1524 1523 1521 1519 1517 1515 1514 1512 1510 1508 1507 1506 1505 1504 1503 1502 1501 1501 1501 1501 1500 1500 1500 1499 1499 1499 1498 1498 1497 1497 1496 1495 1493
1533 1532 1531 1531 1531 1531 1530 1530 1529 1527 1526 1525 1523 1521 1518 1517 1515 1514 1512 1511 1510 1508 1507 1506 1505 1504 1503 1502 1502 1501 1501 1500 1499 1499 1498 1498 1498 1497 1497 1496 1495 1494 1492
1533 1532 1532 1532 1531 1531 1531 1530 1529 1528 1527 1526 1524 1522 1520 1519 1517 1516 1514 1513 1511 1510 1508 1507 1505 1504 1503 1502 1501 1501 1500 1499 1498 1498 1497 1497 1497 1497 1496 1496 1495 1493 1491
1532 1532 1531 1531 1531 1530 1530 1530 1530 1529 1528 1527 1526 1524 1523 1521 1519 1517 1515 1514 1512 1510 1509 1508 1506 1505 1503 1502 1501 1500 1499 1498 1498 1497 1496 1497 1497 1497 1496 1495 1494 1493 1491
1531 1531 1531 1531 1530 1530 1530 1530 1530 1529 1528 1528 1527 1526 1524 1522 1521 1519 1517 1515 1513 1512 1510 1509 1507 1506 1505 1503 1502 1501 1499 1498 1497 1497 1496 1496 1496 1496 1496 1495 1494 1492 1490
1529 1529 1529 1529 1529 1529 1530 1530 1529 1529 1528 1527 1527 1526 1525 1524 1522 1520 1518 1516 1515 1513 1512 1510 1509 1508 1506 1505 1503 1502 1500 1499 1498 1497 1497 1497 1497 1496 1496 1495 1494 1492 1491
1527 1527 1527 1527 1528 1528 1528 1529 1529 1528 1528 1527 1526 1526 1525 1524 1522 1521 1519 1518 1516 1515 1514 1512 1511 1509 1508 1507 1505 1503 1502 1501 1500 1499 1499 1498 1498 1497 1497 1496 1495 1494 1493